Elbow Lake, MN

3:24 AM CST on January 20, 2018 (GMT -0600)
Elbow Lake

Weather History for KY63 - January, 2013

Change the Weather History Date:

Tuesday, January 15, 2013

  Actual Average (KFFM) Record (KFFM)
Temperature  
Mean Temperature 10 °F -  
Max Temperature 21 °F 16 °F 37 °F (1973)
Min Temperature 0 °F -3 °F -34 °F (2009)
Degree Days  
Heating Degree Days 54    
Moisture  
Dew Point 7 °F    
Average Humidity 79    
Maximum Humidity 93    
Minimum Humidity 68    
Precipitation  
Precipitation 0.00 in - - ()
Sea Level Pressure  
Sea Level Pressure 29.98 in    
Wind  
Wind Speed 11 mph (South)    
Max Wind Speed 21 mph    
Max Gust Speed 25 mph    
Visibility 10 miles    
Events Snow    
Averages and records for this station are not official NWS values.
T = Trace of Precipitation, MM = Missing Value Source: NWS Daily Summary

Daily Weather History Graph

Daily Weather History Graph

Search for Another Location

Airport or City:

Trip Planner

Search our weather history database for the weather conditions in past years. The results will help you decide how hot, cold, wet, or windy it might be!

Date:

Astronomy

Jan. 15, 2013 Rise Set
Actual Time 8:01 AM CST 5:05 PM CST
Civil Twilight 7:28 AM CST 5:39 PM CST
Nautical Twilight 6:51 AM CST 6:16 PM CST
Astronomical Twilight 6:15 AM CST 6:52 PM CST
Moon 9:51 AM CST (1/15) 10:15 PM CST (1/15)
Length of Visible Light 10h 10m
Length of Day
9h 04m
Waxing Crescent, 19% of the Moon is Illuminated
Jan 15
Waxing Crescent
Jan 18
First Quarter
Jan 26
Full
Feb 3
Last Quarter
Feb 10
New

Hourly Weather History & Observations

Time (CST) Temp. Windchill Dew Point Humidity Pressure Visibility Wind Dir Wind Speed Gust Speed Precip Events Conditions
12:15 AM 8.6 °F -2.6 °F 3.2 °F 79% 30.18 in 10.0 mi South 6.9 mph - N/A   Overcast
12:35 AM 6.8 °F -4.8 °F 3.2 °F 85% 30.18 in 10.0 mi South 6.9 mph - N/A Snow Light Snow
12:55 AM 5.0 °F -6.9 °F 1.4 °F 85% 30.17 in 10.0 mi South 6.9 mph - N/A   Scattered Clouds
1:15 AM 3.2 °F -9.1 °F -0.4 °F 85% 30.17 in 10.0 mi South 6.9 mph - N/A   Clear
1:35 AM 3.2 °F -9.1 °F -0.4 °F 85% 30.17 in 10.0 mi South 6.9 mph - N/A   Clear
1:55 AM 1.4 °F -11.3 °F -0.4 °F 92% 30.17 in 10.0 mi South 6.9 mph - N/A   Clear
2:15 AM 1.4 °F -11.3 °F -0.4 °F 92% 30.17 in 10.0 mi SSW 6.9 mph - N/A   Clear
2:35 AM -0.4 °F -13.4 °F -4.0 °F 85% 30.17 in 10.0 mi South 6.9 mph - N/A   Clear
2:55 AM 1.4 °F -11.3 °F -2.2 °F 85% 30.18 in 10.0 mi SSW 6.9 mph - N/A   Clear
3:15 AM 1.4 °F -11.3 °F -2.2 °F 85% 30.17 in 10.0 mi SSW 6.9 mph - N/A   Clear
3:55 AM 1.4 °F -8.3 °F -0.4 °F 92% 30.15 in 10.0 mi SSE 4.6 mph - N/A   Scattered Clouds
4:15 AM 1.4 °F -8.3 °F -0.4 °F 92% 30.13 in 10.0 mi ESE 4.6 mph - N/A   Overcast
4:35 AM 3.2 °F -6.2 °F -0.4 °F 85% 30.13 in 10.0 mi SE 4.6 mph - N/A   Overcast
4:55 AM 3.2 °F -7.8 °F 1.4 °F 92% 30.12 in 10.0 mi ESE 5.8 mph - N/A   Overcast
5:15 AM 3.2 °F -7.8 °F 1.4 °F 92% 30.11 in 10.0 mi SE 5.8 mph - N/A   Overcast
5:55 AM 5.0 °F -10.0 °F 1.4 °F 85% 30.10 in 10.0 mi SSE 10.4 mph - N/A   Overcast
6:15 AM 5.0 °F -8.1 °F 1.4 °F 85% 30.10 in 10.0 mi SSE 8.1 mph - N/A   Overcast
6:35 AM 5.0 °F -10.0 °F 3.2 °F 92% 30.10 in 10.0 mi SSE 10.4 mph - N/A   Overcast
7:15 AM 6.8 °F -7.8 °F 3.2 °F 85% 30.09 in 10.0 mi SSE 10.4 mph - N/A   Overcast
7:35 AM 6.8 °F -6.9 °F 3.2 °F 85% 30.09 in 10.0 mi SE 9.2 mph - N/A   Overcast
7:55 AM 6.8 °F -8.6 °F 3.2 °F 85% 30.08 in 10.0 mi SE 11.5 mph - N/A   Overcast
8:15 AM 8.6 °F -7.0 °F 3.2 °F 79% 30.08 in 10.0 mi SE 12.7 mph - N/A   Overcast
8:35 AM 8.6 °F -7.0 °F 5.0 °F 85% 30.08 in 10.0 mi SE 12.7 mph - N/A   Scattered Clouds
8:55 AM 8.6 °F -7.0 °F 5.0 °F 85% 30.07 in 10.0 mi SE 12.7 mph - N/A   Mostly Cloudy
9:15 AM 10.4 °F -4.8 °F 5.0 °F 79% 30.06 in 10.0 mi SSE 12.7 mph - N/A   Overcast
9:35 AM 10.4 °F -6.0 °F 5.0 °F 79% 30.06 in 10.0 mi SSE 15.0 mph - N/A   Overcast
9:55 AM 10.4 °F -7.2 °F 5.0 °F 79% 30.05 in 10.0 mi South 17.3 mph - N/A   Overcast
10:15 AM 10.4 °F -8.2 °F 5.0 °F 79% 30.05 in 10.0 mi South 19.6 mph - N/A   Overcast
10:35 AM 12.2 °F -4.8 °F 5.0 °F 73% 30.05 in 10.0 mi South 17.3 mph - N/A   Overcast
10:55 AM 12.2 °F -4.8 °F 5.0 °F 73% 30.05 in 10.0 mi South 17.3 mph - N/A   Scattered Clouds
11:15 AM 12.2 °F -4.8 °F 5.0 °F 73% 30.04 in 10.0 mi South 17.3 mph - N/A   Clear
11:35 AM 14.0 °F 0.5 °F 6.8 °F 73% 30.04 in 10.0 mi South 11.5 mph - N/A   Clear
11:55 AM 14.0 °F -0.8 °F 8.6 °F 79% 30.02 in 10.0 mi SSW 13.8 mph - N/A   Clear
12:15 PM 15.8 °F 1.4 °F 8.6 °F 73% 30.01 in 10.0 mi SSW 13.8 mph - N/A   Clear
1:15 PM 17.6 °F 2.7 °F 8.6 °F 68% 29.98 in 10.0 mi SSW 16.1 mph - N/A   Clear
1:35 PM 17.6 °F 3.2 °F 8.6 °F 68% 29.96 in 10.0 mi SSW 15.0 mph - N/A   Clear
1:55 PM 19.4 °F 5.5 °F 10.4 °F 68% 29.95 in 10.0 mi South 15.0 mph - N/A   Clear
2:15 PM 19.4 °F 6.0 °F 10.4 °F 68% 29.95 in 10.0 mi South 13.8 mph - N/A   Clear
2:35 PM 19.4 °F 6.0 °F 10.4 °F 68% 29.95 in 10.0 mi South 13.8 mph - N/A   Clear
2:55 PM 19.4 °F 6.0 °F 10.4 °F 68% 29.94 in 10.0 mi South 13.8 mph - N/A   Clear
3:15 PM 19.4 °F 5.5 °F 10.4 °F 68% 29.93 in 10.0 mi South 15.0 mph - N/A   Clear
3:35 PM 19.4 °F 5.5 °F 12.2 °F 74% 29.93 in 10.0 mi South 15.0 mph - N/A   Clear
3:55 PM 19.4 °F 5.5 °F 10.4 °F 68% 29.93 in 10.0 mi South 15.0 mph - N/A   Clear
4:15 PM 19.4 °F 6.0 °F 10.4 °F 68% 29.93 in 10.0 mi South 13.8 mph - N/A   Clear
4:35 PM 19.4 °F 5.5 °F 10.4 °F 68% 29.93 in 10.0 mi South 15.0 mph - N/A   Clear
4:55 PM 19.4 °F 6.0 °F 10.4 °F 68% 29.92 in 10.0 mi South 13.8 mph - N/A   Clear
5:15 PM 17.6 °F 4.3 °F 10.4 °F 73% 29.91 in 10.0 mi South 12.7 mph - N/A   Clear
5:35 PM 15.8 °F 1.4 °F 10.4 °F 79% 29.90 in 10.0 mi South 13.8 mph - N/A   Clear
5:55 PM 15.8 °F 0.9 °F 10.4 °F 79% 29.89 in 10.0 mi South 15.0 mph - N/A   Clear
6:15 PM 15.8 °F 0.9 °F 10.4 °F 79% 29.88 in 10.0 mi South 15.0 mph - N/A   Clear
6:35 PM 15.8 °F 0.3 °F 10.4 °F 79% 29.86 in 10.0 mi South 16.1 mph - N/A   Clear
6:55 PM 17.6 °F 2.2 °F 10.4 °F 73% 29.85 in 10.0 mi South 17.3 mph - N/A   Clear
7:15 PM 17.6 °F 2.7 °F 10.4 °F 73% 29.84 in 10.0 mi South 16.1 mph - N/A   Clear
7:35 PM 17.6 °F 1.7 °F 10.4 °F 73% 29.83 in 10.0 mi South 18.4 mph - N/A   Clear
7:55 PM 17.6 °F 1.7 °F 10.4 °F 73% 29.81 in 10.0 mi South 18.4 mph 24.2 mph N/A   Clear
8:15 PM 17.6 °F 1.3 °F 10.4 °F 73% 29.79 in 10.0 mi SSW 19.6 mph - N/A   Clear
8:35 PM 17.6 °F 1.7 °F 10.4 °F 73% 29.79 in 10.0 mi SSW 18.4 mph - N/A   Clear
8:55 PM 17.6 °F 1.3 °F 10.4 °F 73% 29.77 in 10.0 mi SSW 19.6 mph - N/A   Scattered Clouds
9:15 PM 17.6 °F 0.9 °F 10.4 °F 73% 29.76 in 10.0 mi SSW 20.7 mph - N/A   Overcast
9:35 PM 19.4 °F 3.2 °F 12.2 °F 74% 29.73 in 10.0 mi South 20.7 mph - N/A   Overcast
9:55 PM 19.4 °F 3.6 °F 12.2 °F 74% 29.72 in 10.0 mi South 19.6 mph 25.3 mph N/A   Overcast
10:15 PM 19.4 °F 4.5 °F 12.2 °F 74% 29.71 in 10.0 mi South 17.3 mph - N/A   Overcast
10:55 PM 19.4 °F 4.5 °F 14.0 °F 80% 29.68 in 4.0 mi South 17.3 mph - N/A Snow Light Snow
11:15 PM 19.4 °F 3.6 °F 17.6 °F 93% 29.67 in 1.5 mi South 19.6 mph 25.3 mph N/A Snow Light Snow
11:35 PM 21.2 °F 6.4 °F 17.6 °F 86% 29.65 in 2.0 mi South 18.4 mph - N/A Snow Light Snow
11:55 PM 21.2 °F 6.0 °F 19.4 °F 93% 29.63 in 4.0 mi SSW 19.6 mph - N/A Snow Light Snow